Regional Weather Roundup
Issued by NWS Kansas City/Pleasant Hill, MO

Home | Current Version | Previous Version | Graphics & Text | Print | Product List | Glossary Off
Versions: 1 2 3 4 5 6 7 8 9 10 11 12 13 14 15 16 17 18 19 20 21 22 23 24 25 26 27 28 29 30 31 32 33 34 35 36 37 38 39 40 41 42 43 44 45 46 47 48 49 50

000
ASUS43 KEAX 260104
RWREAX

WEATHER ROUNDUP FOR EASTERN KANSAS AND NORTHWEST MISSOURI
NATIONAL WEATHER SERVICE KANSAS CITY/PLEASANT HILL MO
800 PM CDT FRI JUL 25 2014

KSZ040-057-103>105-MOZ028-029-037-043-260200-
...KANSAS CITY METROPOLITAN AREA...

CITY           SKY/WX    TMP DP  RH WIND       PRES   REMARKS
K.C. INTL      MOCLDY    89  72  56 S17G23    29.77R HX  96
K.C. DOWNTOWN  MOCLDY    92  72  51 S15G25    29.76R HX  99
LEES SUMMIT    PTCLDY    88  73  61 SW15      29.79F HX  95
OLATHE - IXD   MOCLDY    89  73  59 S16       29.79F HX  97
OLATHE - OJC   MOCLDY    88  73  61 S12       29.79F HX  95
LAWRENCE       PTCLDY    93  72  50 S16       29.76F HX 101

$$

MOZ001>008-011>017-020>025-030>033-038>040-044>046-053-054-260200-
...NORTHERN AND CENTRAL MISSOURI...

CITY           SKY/WX    TMP DP  RH WIND       PRES   REMARKS
ST. JOSEPH     CLEAR     90  75  61 S10       29.73S HX 100
MOSBY          PTCLDY    90  72  55 S8        29.77R HX  96
WHITEMAN AFB   CLEAR     87  68  52 SW15      29.81R HX  90
CLINTON        PTCLDY    90  73  58 SW8       29.82F HX  98
SEDALIA        CLEAR     89  69  51 SW14      29.82S HX  93
WARSAW         NOT AVBL
MARSHALL       PTCLDY    90  73  58 SW6       29.80R HX  98
CHILLICOTHE      N/A     87  76  69 S5        29.77S HX  97
KIRKSVILLE     PTCLDY    76  70  82 E6        29.83R

$$

MOZ041-047>049-056>058-063>065-088>090-097-260200-
...EASTERN AND SOUTHERN MISSOURI...

CITY           SKY/WX    TMP DP  RH WIND       PRES   REMARKS
ST. LOUIS INTL MOCLDY    80  63  55 S9        29.87S
SPIRIT OF STL  PTCLDY    79  65  62 S6        29.84F
COLUMBIA       CLEAR     85  72  65 S14       29.82S HX  91
JEFFERSON CITY CLEAR     86  70  58 S9        29.81F HX  90
HANNIBAL       CLEAR     77  66  69 E3        29.85R
ROLLA          CLEAR     81  67  62 S15       29.88S
LEBANON        CLEAR     82  70  65 S9        29.91S
OSAGE BEACH    PTCLDY    86  70  58 S9        29.86R HX  90
SPRINGFIELD    CLEAR     86  68  54 S12       29.90S
BRANSON        PTCLDY    86  72  62 S6        29.96S HX  92
NEVADA         CLEAR     86  72  62 S14G21    29.86S HX  92
JOPLIN         CLEAR     86  70  58 S14G25    29.89S HX  90
WEST PLAINS    PTCLDY    80  67  64 S9        29.96S
MALDEN         PTCLDY    79  64  61 S7        29.95

$$

IAZ060-094-KSZ022-034>040-054-083-096-NEZ052-066-093-260200-
...KANSAS...SOUTHEAST NEBRASKA AND IOWA...

CITY           SKY/WX    TMP DP  RH WIND       PRES   REMARKS
TOPEKA         PTCLDY    95  71  45 S17G25    29.75S HX 102
MANHATTAN      CLEAR     99  68  36 SW7       29.73S HX 104
EMPORIA        PTCLDY    91  72  53 S17       29.79F HX  98
CHANUTE        CLEAR     87  73  62 S16       29.84F HX  94
WICHITA        PTCLDY    96  60  30 S17G24    29.78R HX  96
OMAHA          MOCLDY    89  78  70 E8        29.72S HX 103
LINCOLN        CLEAR     92  74  55 N8        29.74S HX 101
FALLS CITY     CLEAR     95  71  45 SW9       29.71S HX 102
LAMONI         CLEAR     79  72  79 E6        29.77S
DES MOINES     MOCLDY    81  71  71 E6        29.77F

$$



USA.gov is the U.S. government's official web portal to all federal, state and local government web resources and services.